TimeCDT,TemperatureF,Dew PointF,Humidity,Sea Level PressureIn,VisibilityMPH,Wind Direction,Wind SpeedMPH,Gust SpeedMPH,PrecipitationIn,Events,Conditions,WindDirDegrees,DateUTC
12:15 AM,10.4,-0.4,62,30.13,10.0,WNW,11.5,23.0,N/A,,Clear,300,2013-03-20 05:15:00
12:35 AM,10.4,-0.4,62,30.13,10.0,NW,17.3,25.3,N/A,,Clear,310,2013-03-20 05:35:00
12:55 AM,10.4,-0.4,62,30.13,10.0,NW,15.0,23.0,N/A,,Clear,310,2013-03-20 05:55:00
1:15 AM,10.4,-0.4,62,30.13,10.0,NW,13.8,19.6,N/A,,Clear,310,2013-03-20 06:15:00
1:35 AM,10.4,-0.4,62,30.14,10.0,NW,15.0,23.0,N/A,,Clear,310,2013-03-20 06:35:00
1:55 AM,8.6,-2.2,62,30.14,10.0,NW,11.5,26.5,N/A,,Clear,310,2013-03-20 06:55:00
2:15 AM,8.6,-2.2,62,30.14,10.0,NW,17.3,26.5,N/A,,Clear,320,2013-03-20 07:15:00
2:35 AM,8.6,-2.2,62,30.14,10.0,NW,12.7,21.9,N/A,,Clear,310,2013-03-20 07:35:00
2:55 AM,8.6,-2.2,62,30.14,10.0,NW,15.0,24.2,N/A,,Clear,310,2013-03-20 07:55:00
3:15 AM,8.6,-2.2,62,30.14,10.0,NW,10.4,17.3,N/A,,Clear,310,2013-03-20 08:15:00
3:35 AM,8.6,-2.2,62,30.14,10.0,NW,9.2,21.9,N/A,,Clear,310,2013-03-20 08:35:00
3:55 AM,8.6,-2.2,62,30.14,10.0,NW,10.4,19.6,N/A,,Clear,310,2013-03-20 08:55:00
4:15 AM,8.6,-4.0,57,30.13,10.0,WNW,13.8,23.0,N/A,,Clear,300,2013-03-20 09:15:00
4:35 AM,8.6,-4.0,57,30.14,10.0,WNW,11.5,27.6,N/A,,Partly Cloudy,300,2013-03-20 09:35:00
4:55 AM,6.8,-2.2,67,30.14,10.0,NW,10.4,17.3,N/A,,Clear,310,2013-03-20 09:55:00
5:15 AM,6.8,-2.2,67,30.14,10.0,NW,11.5,21.9,N/A,,Clear,310,2013-03-20 10:15:00
5:35 AM,6.8,-2.2,67,30.14,10.0,WNW,13.8,20.7,N/A,,Clear,300,2013-03-20 10:35:00
5:55 AM,6.8,-2.2,67,30.14,10.0,NW,12.7,24.2,N/A,,Clear,310,2013-03-20 10:55:00
6:15 AM,6.8,-2.2,67,30.14,10.0,WNW,12.7,18.4,N/A,,Clear,290,2013-03-20 11:15:00
6:35 AM,6.8,-2.2,67,30.14,10.0,NW,15.0,20.7,N/A,,Clear,310,2013-03-20 11:35:00
6:55 AM,6.8,-2.2,67,30.15,10.0,NW,11.5,20.7,N/A,,Clear,310,2013-03-20 11:55:00
7:15 AM,6.8,-2.2,67,30.15,10.0,WNW,15.0,21.9,N/A,,Clear,300,2013-03-20 12:15:00
7:35 AM,6.8,-4.0,61,30.15,10.0,NW,11.5,20.7,N/A,,Clear,310,2013-03-20 12:35:00
7:55 AM,6.8,-4.0,61,30.15,10.0,NW,10.4,20.7,N/A,,Clear,310,2013-03-20 12:55:00
8:15 AM,6.8,-4.0,61,30.15,10.0,NW,12.7,26.5,N/A,,Clear,310,2013-03-20 13:15:00
8:35 AM,8.6,-4.0,57,30.15,10.0,WNW,11.5,20.7,N/A,,Clear,300,2013-03-20 13:35:00
8:55 AM,8.6,-2.2,62,30.15,10.0,WNW,11.5,23.0,N/A,,Clear,300,2013-03-20 13:55:00
9:15 AM,8.6,-2.2,62,30.15,10.0,NW,16.1,-,N/A,,Clear,310,2013-03-20 14:15:00
9:35 AM,8.6,-2.2,62,30.15,10.0,NW,15.0,23.0,N/A,,Clear,310,2013-03-20 14:35:00
9:55 AM,10.4,-2.2,57,30.15,10.0,NW,17.3,27.6,N/A,,Clear,310,2013-03-20 14:55:00
10:15 AM,10.4,-2.2,57,30.14,10.0,WNW,15.0,21.9,N/A,,Clear,300,2013-03-20 15:15:00
10:35 AM,10.4,-2.2,57,30.14,10.0,NW,13.8,25.3,N/A,,Clear,310,2013-03-20 15:35:00
10:55 AM,12.2,-0.4,57,30.14,10.0,WNW,13.8,23.0,N/A,,Clear,300,2013-03-20 15:55:00
11:15 AM,12.2,-0.4,57,30.14,10.0,NW,17.3,25.3,N/A,,Clear,310,2013-03-20 16:15:00
11:35 AM,12.2,-0.4,57,30.13,10.0,NW,16.1,28.8,N/A,,Clear,310,2013-03-20 16:35:00
11:55 AM,14.0,-0.4,53,30.13,10.0,WNW,11.5,19.6,N/A,,Clear,300,2013-03-20 16:55:00
12:15 PM,14.0,-0.4,53,30.12,10.0,NW,13.8,20.7,N/A,,Clear,310,2013-03-20 17:15:00
12:35 PM,14.0,-0.4,53,30.12,10.0,WNW,16.1,26.5,N/A,,Clear,290,2013-03-20 17:35:00
12:55 PM,15.8,1.4,53,30.12,10.0,NW,18.4,27.6,N/A,,Clear,320,2013-03-20 17:55:00
1:15 PM,15.8,1.4,53,30.11,10.0,WNW,15.0,25.3,N/A,,Clear,300,2013-03-20 18:15:00
1:35 PM,15.8,1.4,53,30.10,10.0,NW,17.3,25.3,N/A,,Clear,310,2013-03-20 18:35:00
1:55 PM,15.8,1.4,53,30.10,10.0,WNW,17.3,28.8,N/A,,Clear,300,2013-03-20 18:55:00
2:15 PM,15.8,1.4,53,30.09,10.0,NW,16.1,28.8,N/A,,Clear,310,2013-03-20 19:15:00
2:35 PM,15.8,1.4,53,30.09,10.0,WNW,18.4,25.3,N/A,,Clear,300,2013-03-20 19:35:00
2:55 PM,17.6,1.4,49,30.08,10.0,WNW,15.0,25.3,N/A,,Clear,290,2013-03-20 19:55:00
3:15 PM,17.6,3.2,53,30.07,10.0,NW,17.3,24.2,N/A,,Partly Cloudy,310,2013-03-20 20:15:00
3:35 PM,17.6,3.2,53,30.07,10.0,WNW,13.8,24.2,N/A,,Scattered Clouds,300,2013-03-20 20:35:00
3:55 PM,17.6,5.0,58,30.07,10.0,WNW,13.8,29.9,N/A,,Mostly Cloudy,300,2013-03-20 20:55:00
4:15 PM,17.6,3.2,53,30.07,10.0,WNW,13.8,26.5,N/A,,Mostly Cloudy,290,2013-03-20 21:15:00
4:35 PM,17.6,3.2,53,30.07,10.0,NW,13.8,23.0,N/A,,Overcast,310,2013-03-20 21:35:00
4:55 PM,17.6,3.2,53,30.08,10.0,NW,12.7,23.0,N/A,,Overcast,310,2013-03-20 21:55:00
5:15 PM,17.6,3.2,53,30.08,10.0,NW,16.1,24.2,N/A,,Overcast,310,2013-03-20 22:15:00
5:35 PM,17.6,3.2,53,30.08,10.0,WNW,15.0,27.6,N/A,,Overcast,290,2013-03-20 22:35:00
5:55 PM,17.6,3.2,53,30.08,10.0,NW,17.3,23.0,N/A,,Overcast,310,2013-03-20 22:55:00
6:15 PM,17.6,3.2,53,30.08,10.0,WNW,13.8,20.7,N/A,,Overcast,300,2013-03-20 23:15:00
6:35 PM,15.8,3.2,58,30.07,10.0,WNW,12.7,20.7,N/A,,Overcast,300,2013-03-20 23:35:00
6:55 PM,15.8,3.2,58,30.07,10.0,WNW,13.8,20.7,N/A,,Mostly Cloudy,300,2013-03-20 23:55:00
7:15 PM,15.8,5.0,62,30.07,10.0,NW,10.4,-,N/A,,Mostly Cloudy,310,2013-03-21 00:15:00
7:35 PM,15.8,5.0,62,30.08,10.0,NW,9.2,-,N/A,,Partly Cloudy,310,2013-03-21 00:35:00
7:55 PM,14.0,5.0,67,30.08,10.0,WNW,6.9,-,N/A,,Clear,300,2013-03-21 00:55:00
8:15 PM,14.0,5.0,67,30.07,10.0,NW,10.4,-,N/A,,Partly Cloudy,310,2013-03-21 01:15:00
8:35 PM,14.0,3.2,62,30.08,10.0,NW,9.2,-,N/A,,Partly Cloudy,310,2013-03-21 01:35:00
8:55 PM,14.0,3.2,62,30.08,10.0,Variable,6.9,-,N/A,,Clear,0,2013-03-21 01:55:00
9:15 PM,12.2,3.2,67,30.08,10.0,Variable,5.8,11.5,N/A,,Clear,0,2013-03-21 02:15:00
9:35 PM,12.2,3.2,67,30.08,10.0,NW,5.8,-,N/A,,Clear,310,2013-03-21 02:35:00
9:55 PM,12.2,3.2,67,30.08,10.0,WNW,6.9,-,N/A,,Clear,290,2013-03-21 02:55:00
10:15 PM,12.2,3.2,67,30.08,10.0,Variable,5.8,-,N/A,,Clear,0,2013-03-21 03:15:00
10:35 PM,12.2,3.2,67,30.09,10.0,WNW,5.8,-,N/A,,Clear,290,2013-03-21 03:35:00
10:55 PM,10.4,3.2,73,30.08,10.0,Variable,5.8,-,N/A,,Clear,0,2013-03-21 03:55:00
11:15 PM,10.4,3.2,73,30.09,10.0,Calm,Calm,-,N/A,,Clear,0,2013-03-21 04:15:00
11:35 PM,10.4,3.2,73,30.09,10.0,Calm,Calm,-,N/A,,Clear,0,2013-03-21 04:35:00
11:55 PM,10.4,3.2,73,30.09,10.0,Variable,4.6,-,N/A,,Clear,0,2013-03-21 04:55:00